ISR535 LLBG-LGKR

Flight info

Callsign ISR535
Flight time N/A
Altitude 34000
Route SUVAS DCT STEPA DCT ANIDE UL53 PERIM DCT SOTIX DCT UVRIT DCT KUGGI DCT KOR UL53 GARTA L53 PARNA
Aircraft A320/M-SDE2FGHIJ1LORVWY/SB1

Departure

Time N/A
Airport Ben Gurion International Airport (LLBG)

Arrival

Time 2026-04-27 13:27
Airport Corfu Ioannis Kapodistrias International Airport (LGKR)
Time Latitude Longitude Altitude Speed Heading
2026-04-27 12:54 37.11044 24.83883 38027 ft 616 kts 301°
2026-04-27 12:54 37.15580 24.74772 38028 ft 616 kts 300°
2026-04-27 12:55 37.20105 24.65650 38031 ft 616 kts 300°
2026-04-27 12:55 37.24629 24.56531 38027 ft 616 kts 300°
2026-04-27 12:56 37.29111 24.47464 38026 ft 615 kts 300°
2026-04-27 12:56 37.33616 24.38315 38024 ft 615 kts 300°
2026-04-27 12:57 37.38117 24.29170 38023 ft 615 kts 300°
2026-04-27 12:57 37.42609 24.20016 38024 ft 615 kts 300°
2026-04-27 12:58 37.47060 24.10909 38023 ft 615 kts 300°
2026-04-27 12:58 37.51538 24.01727 38023 ft 615 kts 300°
2026-04-27 12:59 37.56010 23.92536 38027 ft 615 kts 300°
2026-04-27 12:59 37.60471 23.83334 38024 ft 615 kts 300°
2026-04-27 13:00 37.64926 23.74113 38027 ft 615 kts 300°
2026-04-27 13:00 37.69346 23.64946 38025 ft 615 kts 300°
2026-04-27 13:01 37.73783 23.55706 38024 ft 615 kts 300°
2026-04-27 13:01 37.78191 23.46449 38017 ft 614 kts 296°
2026-04-27 13:02 37.81787 23.36713 38016 ft 611 kts 290°
2026-04-27 13:02 37.85352 23.27025 38018 ft 612 kts 292°
2026-04-27 13:03 37.88987 23.17290 38017 ft 612 kts 291°
2026-04-27 13:03 37.92571 23.07522 38021 ft 612 kts 291°
2026-04-27 13:04 37.96106 22.97724 38016 ft 612 kts 291°
2026-04-27 13:04 37.99625 22.87902 38020 ft 612 kts 290°
2026-04-27 13:05 38.03132 22.78156 38022 ft 612 kts 291°
2026-04-27 13:05 38.06928 22.68480 38021 ft 615 kts 301°
2026-04-27 13:06 38.11768 22.59527 38022 ft 615 kts 304°
2026-04-27 13:06 38.16652 22.50591 38022 ft 616 kts 304°
2026-04-27 13:07 38.19090 22.46115 37898 ft 617 kts 304°
2026-04-27 13:07 38.21496 22.41694 37538 ft 614 kts 304°
2026-04-27 13:07 38.23943 22.37196 37287 ft 614 kts 304°
2026-04-27 13:07 38.26370 22.32724 37043 ft 614 kts 304°
2026-04-27 13:08 38.28795 22.28248 36791 ft 614 kts 304°
2026-04-27 13:08 38.31185 22.23828 36535 ft 614 kts 304°
2026-04-27 13:08 38.33607 22.19346 36301 ft 614 kts 304°
2026-04-27 13:08 38.36030 22.14859 36056 ft 615 kts 304°
2026-04-27 13:09 38.38454 22.10363 35798 ft 615 kts 304°
2026-04-27 13:09 38.40877 22.05856 35544 ft 617 kts 304°
2026-04-27 13:09 38.43304 22.01334 35291 ft 619 kts 304°
2026-04-27 13:09 38.45735 21.96804 35042 ft 620 kts 304°
2026-04-27 13:10 38.48173 21.92260 34784 ft 621 kts 303°
2026-04-27 13:10 38.50608 21.87708 34536 ft 621 kts 303°
2026-04-27 13:10 38.52220 21.84688 34371 ft 622 kts 303°
2026-04-27 13:10 38.55450 21.78624 34034 ft 624 kts 303°
2026-04-27 13:11 38.57886 21.74041 33786 ft 623 kts 303°
2026-04-27 13:11 38.60317 21.69463 33541 ft 622 kts 303°
2026-04-27 13:11 38.62750 21.64884 33288 ft 623 kts 303°
2026-04-27 13:11 38.65190 21.60290 33037 ft 625 kts 303°
2026-04-27 13:12 38.67635 21.55681 32785 ft 627 kts 303°
2026-04-27 13:12 38.70083 21.51064 32525 ft 626 kts 303°
2026-04-27 13:12 38.71699 21.48010 32354 ft 626 kts 303°
2026-04-27 13:12 38.74923 21.41899 32026 ft 625 kts 303°
2026-04-27 13:13 38.76568 21.38776 31560 ft 626 kts 303°
2026-04-27 13:13 38.79807 21.32613 29931 ft 631 kts 303°
2026-04-27 13:13 38.82269 21.27923 28737 ft 636 kts 303°
2026-04-27 13:13 38.83932 21.24754 27832 ft 632 kts 303°
2026-04-27 13:14 38.86387 21.20079 26515 ft 632 kts 303°
2026-04-27 13:14 38.88807 21.15462 24990 ft 632 kts 303°
2026-04-27 13:14 38.91257 21.10776 23629 ft 630 kts 303°
2026-04-27 13:14 38.93677 21.06129 22476 ft 623 kts 303°
2026-04-27 13:15 38.96074 21.01518 21401 ft 619 kts 303°
2026-04-27 13:15 38.98455 20.96938 20490 ft 612 kts 303°
2026-04-27 13:15 39.01557 20.90977 19460 ft 601 kts 303°
2026-04-27 13:15 39.03121 20.87966 18887 ft 596 kts 303°
2026-04-27 13:16 39.05406 20.83551 18015 ft 590 kts 303°
2026-04-27 13:16 39.07665 20.79175 17151 ft 585 kts 303°
2026-04-27 13:16 39.09875 20.74893 16277 ft 579 kts 303°
2026-04-27 13:16 39.12094 20.70592 15425 ft 574 kts 302°
2026-04-27 13:17 39.14295 20.66322 14616 ft 571 kts 302°
2026-04-27 13:17 39.16472 20.62091 13789 ft 564 kts 302°
2026-04-27 13:17 39.18628 20.57895 12990 ft 559 kts 302°
2026-04-27 13:17 39.20765 20.53724 12196 ft 555 kts 302°
2026-04-27 13:18 39.22882 20.49580 11403 ft 550 kts 302°
2026-04-27 13:18 39.24948 20.45531 10639 ft 546 kts 302°
2026-04-27 13:18 39.27015 20.41487 10395 ft 546 kts 302°
2026-04-27 13:18 39.29108 20.37391 10182 ft 547 kts 302°
2026-04-27 13:19 39.31168 20.33359 9858 ft 523 kts 302°
2026-04-27 13:19 39.33111 20.29568 9438 ft 491 kts 302°
2026-04-27 13:19 39.34936 20.25999 9189 ft 462 kts 302°
2026-04-27 13:19 39.36663 20.22608 8914 ft 443 kts 302°
2026-04-27 13:20 39.38278 20.19412 8350 ft 409 kts 302°
2026-04-27 13:20 39.39633 20.16413 7156 ft 370 kts 294°
2026-04-27 13:20 39.40559 20.13450 6358 ft 342 kts 292°
2026-04-27 13:20 39.41680 20.10875 6138 ft 315 kts 301°
2026-04-27 13:21 39.42817 20.08602 5880 ft 287 kts 296°
2026-04-27 13:21 39.43223 20.06224 5234 ft 267 kts 258°
2026-04-27 13:21 39.42386 20.04219 4602 ft 253 kts 214°
2026-04-27 13:21 39.40838 20.03281 3847 ft 243 kts 205°
2026-04-27 13:22 39.39683 20.01822 3508 ft 239 kts 244°
2026-04-27 13:22 39.39586 19.99652 3011 ft 255 kts 286°
2026-04-27 13:22 39.40578 19.97879 2903 ft 242 kts 327°
2026-04-27 13:22 39.42113 19.97275 2904 ft 226 kts 358°
2026-04-27 13:23 39.43641 19.97235 2903 ft 214 kts 352°
2026-04-27 13:23 39.45031 19.96752 2895 ft 199 kts 341°
2026-04-27 13:23 39.46353 19.96229 2620 ft 198 kts 343°
2026-04-27 13:23 39.47676 19.95741 2313 ft 196 kts 344°
2026-04-27 13:24 39.48972 19.95270 2016 ft 190 kts 344°
2026-04-27 13:24 39.50174 19.94833 1774 ft 172 kts 344°
2026-04-27 13:24 39.51232 19.94382 1696 ft 152 kts 333°
2026-04-27 13:24 39.52091 19.93632 1479 ft 148 kts 322°
2026-04-27 13:25 39.52990 19.93019 1207 ft 147 kts 345°
2026-04-27 13:25 39.53994 19.92865 1014 ft 147 kts 353°
2026-04-27 13:25 39.54985 19.92576 840 ft 145 kts 345°
2026-04-27 13:25 39.55969 19.92313 682 ft 145 kts 348°
2026-04-27 13:26 39.56957 19.92061 504 ft 144 kts 349°
2026-04-27 13:26 39.57943 19.91805 318 ft 146 kts 350°
2026-04-27 13:26 39.58939 19.91537 145 ft 146 kts 349°
2026-04-27 13:26 39.59922 19.91291 26 ft 133 kts 349°
2026-04-27 13:27 39.60576 19.91114 19 ft 56 kts 348°
2026-04-27 13:27 39.60870 19.91039 20 ft 23 kts 348°
2026-04-27 13:27 39.61011 19.91009 19 ft 12 kts
2026-04-27 13:27 39.61053 19.91087 19 ft 12 kts 62°
2026-04-27 13:28 39.61008 19.91136 19 ft 11 kts 163°
2026-04-27 13:28 39.60925 19.91161 19 ft 14 kts 172°
2026-04-27 13:28 39.60798 19.91192 19 ft 23 kts 169°
2026-04-27 13:28 39.60653 19.91228 18 ft 17 kts 161°
2026-04-27 13:29 39.60620 19.91307 19 ft 11 kts 81°
2026-04-27 13:29 39.60625 19.91345 21 ft 3 kts 79°
2026-04-27 13:29 39.60629 19.91369 20 ft 0 kts 78°
2026-04-27 13:30 39.60629 19.91368 19 ft 0 kts 78°